,,Stat5,,Stat1,,Stat2,,Stat3,,Stat4,,Wind1,,Wind1,
time,status,PA1M_AVG,status,PR1M_SUM,status,RH1M_AVG,status,SR1M_AVG,status,TA1M_AVG,status,W1dAve1m,status,W1sAve1m,
2000-09-25, 00:00:01,VALID,918.406,VALID,0,VALID,99.91,VALID,-0.0679233,VALID,19.7631,VALID,227,VALID,0.632196,
2000-09-25, 00:01:01,VALID,918.406,VALID,0,VALID,99.9151,VALID,-0.0509425,VALID,19.7631,VALID,216,VALID,0.907728,
2000-09-25, 00:02:01,VALID,918.407,VALID,0,VALID,99.9062,VALID,-0.0169808,VALID,19.7534,VALID,218,VALID,0.180743,
2000-09-25, 00:03:01,VALID,918.407,VALID,0,VALID,99.8985,VALID,-0.0339617,VALID,19.7499,VALID,188,VALID,0.0444712,
2000-09-25, 00:04:01,VALID,918.419,VALID,0,VALID,99.8998,VALID,-0.0339617,VALID,19.7536,VALID,154,VALID,0.5644,
2000-09-25, 00:05:01,VALID,918.437,VALID,0,VALID,99.896,VALID,-0.0339617,VALID,19.7437,VALID,175,VALID,0.699023,
2000-09-25, 00:06:01,VALID,918.475,VALID,0,VALID,99.9201,VALID,-0.0339617,VALID,19.7469,VALID,150,VALID,0.363377,
2000-09-25, 00:07:01,VALID,918.475,VALID,0,VALID,99.9087,VALID,-0.0169808,VALID,19.7693,VALID,184,VALID,0.897821,
2000-09-25, 00:08:01,VALID,918.463,VALID,0,VALID,99.9087,VALID,0,VALID,19.7457,VALID,187,VALID,0.531867,
2000-09-25, 00:09:01,VALID,918.448,VALID,0,VALID,99.9265,VALID,-0.0339617,VALID,19.7658,VALID,186,VALID,0.185937,
2000-09-25, 00:10:01,VALID,918.423,VALID,0,VALID,99.9227,VALID,-0.0339617,VALID,19.7825,VALID,161,VALID,0.659334,
2000-09-25, 00:11:01,VALID,918.416,VALID,0,VALID,99.9201,VALID,0,VALID,19.7626,VALID,158,VALID,0.509046,
2000-09-25, 00:12:01,VALID,918.399,VALID,0,VALID,99.9227,VALID,0,VALID,19.7755,VALID,159,VALID,0.578547,
2000-09-25, 00:13:01,VALID,918.39,VALID,0,VALID,99.9189,VALID,-0.0339617,VALID,19.7693,VALID,166,VALID,0.60829,
2000-09-25, 00:14:01,VALID,918.384,VALID,0,VALID,99.9227,VALID,-0.0169808,VALID,19.7621,VALID,163,VALID,0.407986,
2000-09-25, 00:15:00,VALID,918.393,VALID,0,VALID,99.9329,VALID,-0.0679233,VALID,19.7765,VALID,163,VALID,0.477706,
2000-09-25, 00:16:00,VALID,918.394,VALID,0,VALID,99.9189,VALID,-0.101885,VALID,19.7797,VALID,165,VALID,0.699113,
2000-09-25, 00:17:00,VALID,918.384,VALID,0,VALID,99.929,VALID,-0.101885,VALID,19.7641,VALID,158,VALID,0.534539,
2000-09-25, 00:18:00,VALID,918.358,VALID,0,VALID,99.9189,VALID,-0.101885,VALID,19.7671,VALID,144,VALID,0.376645,
2000-09-25, 00:19:00,VALID,918.336,VALID,0,VALID,99.9354,VALID,-0.101885,VALID,19.7676,VALID,133,VALID,0,
2000-09-25, 00:20:00,VALID,918.298,VALID,0,VALID,99.9252,VALID,-0.101885,VALID,19.7705,VALID,127,VALID,0,
2000-09-25, 00:21:00,VALID,918.265,VALID,0,VALID,99.9278,VALID,-0.118866,VALID,19.7708,VALID,152,VALID,0,
2000-09-25, 00:22:00,VALID,918.248,VALID,0,VALID,99.9278,VALID,-0.101885,VALID,19.7743,VALID,153,VALID,0,
2000-09-25, 00:23:00,VALID,918.234,VALID,0,VALID,99.929,VALID,-0.101885,VALID,19.7738,VALID,166,VALID,0,
2000-09-25, 00:24:00,VALID,918.217,VALID,0,VALID,99.924,VALID,-0.101885,VALID,19.7445,VALID,147,VALID,0.556473,
2000-09-25, 00:25:00,VALID,918.201,VALID,0,VALID,99.9316,VALID,-0.0849042,VALID,19.7415,VALID,140,VALID,0.867804,
2000-09-25, 00:26:00,VALID,918.196,VALID,0,VALID,99.9214,VALID,-0.118866,VALID,19.7124,VALID,145,VALID,0.913218,
2000-09-25, 00:27:00,VALID,918.191,VALID,0,VALID,99.9112,VALID,-0.135847,VALID,19.6803,VALID,156,VALID,1.09498,
2000-09-25, 00:28:00,VALID,918.172,VALID,0,VALID,99.9074,VALID,-0.101885,VALID,19.6478,VALID,170,VALID,1.13302,
2000-09-25, 00:29:00,VALID,918.174,VALID,0,VALID,99.9151,VALID,-0.101885,VALID,19.6212,VALID,189,VALID,0.998438,
2000-09-25, 00:30:00,VALID,918.153,VALID,0,VALID,99.9278,VALID,-0.0339617,VALID,19.6274,VALID,200,VALID,1.12007,
2000-09-25, 00:31:00,VALID,918.129,VALID,0,VALID,99.9367,VALID,0,VALID,19.6209,VALID,219,VALID,1.02908,
2000-09-25, 00:32:00,VALID,918.109,VALID,0,VALID,99.9468,VALID,-0.0509425,VALID,19.6371,VALID,219,VALID,0.879012,
2000-09-25, 00:33:00,VALID,918.083,VALID,0,VALID,99.9468,VALID,-0.0169808,VALID,19.6237,VALID,221,VALID,0.915752,
2000-09-25, 00:34:00,VALID,918.056,VALID,0,VALID,99.9468,VALID,0,VALID,19.6406,VALID,202,VALID,1.14522,
2000-09-25, 00:35:00,VALID,918.031,VALID,0,VALID,99.9443,VALID,0,VALID,19.6503,VALID,218,VALID,0.721484,
2000-09-25, 00:36:00,VALID,918.013,VALID,0,VALID,99.9456,VALID,-0.0169808,VALID,19.6465,VALID,215,VALID,0.610377,
2000-09-25, 00:37:00,VALID,918.001,VALID,0,VALID,99.9481,VALID,-0.0169808,VALID,19.6401,VALID,190,VALID,1.34971,
2000-09-25, 00:38:00,VALID,918.004,VALID,0,VALID,99.9557,VALID,0.0169808,VALID,19.6368,VALID,213,VALID,0.9706,
2000-09-25, 00:39:00,VALID,917.983,VALID,0,VALID,99.9647,VALID,0,VALID,19.6498,VALID,226,VALID,0.83457,
2000-09-25, 00:40:00,VALID,917.984,VALID,0,VALID,99.9545,VALID,0,VALID,19.6565,VALID,205,VALID,1.18154,
2000-09-25, 00:41:00,VALID,917.98,VALID,0,VALID,99.9557,VALID,0,VALID,19.6498,VALID,210,VALID,0.853824,
2000-09-25, 00:42:00,VALID,917.974,VALID,0,VALID,99.9481,VALID,-0.0169808,VALID,19.653,VALID,213,VALID,1.09586,
2000-09-25, 00:43:00,VALID,917.961,VALID,0,VALID,99.9659,VALID,0,VALID,19.6468,VALID,221,VALID,1.35373,
2000-09-25, 00:44:00,VALID,917.963,VALID,0,VALID,99.9608,VALID,0,VALID,19.6535,VALID,223,VALID,1.54514,
2000-09-25, 00:45:00,VALID,917.933,VALID,0,VALID,99.9519,VALID,-0.0849042,VALID,19.6408,VALID,222,VALID,1.15339,
2000-09-25, 00:46:00,VALID,917.913,VALID,0,VALID,99.9519,VALID,-0.0849042,VALID,19.6418,VALID,228,VALID,1.55427,
2000-09-25, 00:47:00,VALID,917.883,VALID,0,VALID,99.9608,VALID,-0.118866,VALID,19.6252,VALID,225,VALID,1.88857,
2000-09-25, 00:48:00,VALID,917.855,VALID,0,VALID,99.9596,VALID,-0.118866,VALID,19.6222,VALID,216,VALID,1.58368,
2000-09-25, 00:49:00,VALID,917.824,VALID,0,VALID,99.957,VALID,-0.118866,VALID,19.6127,VALID,221,VALID,1.26162,
2000-09-25, 00:50:00,VALID,917.781,VALID,0,VALID,99.9634,VALID,-0.135847,VALID,19.6125,VALID,206,VALID,1.03289,
2000-09-25, 00:51:00,VALID,917.765,VALID,0,VALID,99.9621,VALID,-0.118866,VALID,19.6063,VALID,226,VALID,1.88158,
2000-09-25, 00:52:00,VALID,917.728,VALID,0,VALID,99.9647,VALID,-0.118866,VALID,19.6028,VALID,226,VALID,0.988281,
2000-09-25, 00:53:00,VALID,917.716,VALID,0,VALID,99.971,VALID,-0.118866,VALID,19.5966,VALID,229,VALID,1.05427,
2000-09-25, 00:54:00,VALID,917.68,VALID,0,VALID,99.9634,VALID,-0.101885,VALID,19.5839,VALID,229,VALID,1.17455,
2000-09-25, 00:55:00,VALID,917.664,VALID,0,VALID,99.9685,VALID,-0.118866,VALID,19.567,VALID,232,VALID,1.12418,
2000-09-25, 00:56:00,VALID,917.648,VALID,0,VALID,99.9672,VALID,-0.101885,VALID,19.5635,VALID,220,VALID,1.23775,
2000-09-25, 00:57:00,VALID,917.635,VALID,0,VALID,99.9748,VALID,-0.101885,VALID,19.5707,VALID,221,VALID,1.27303,
2000-09-25, 00:58:00,VALID,917.631,VALID,0,VALID,99.9799,VALID,-0.101885,VALID,19.574,VALID,226,VALID,1.6003,
2000-09-25, 00:59:00,VALID,917.611,VALID,0,VALID,99.9886,VALID,-0.101885,VALID,19.5737,VALID,217,VALID,0.948633,
2000-09-25, 01:00:00,VALID,917.596,VALID,0,VALID,99.986,VALID,-0.0169808,VALID,19.5623,VALID,223,VALID,1.05695,
2000-09-25, 01:01:00,VALID,917.576,VALID,0,VALID,99.9947,VALID,0,VALID,19.566,VALID,232,VALID,0.762587,
2000-09-25, 01:02:00,VALID,917.564,VALID,0,VALID,99.9898,VALID,0,VALID,19.572,VALID,215,VALID,1.05849,
2000-09-25, 01:03:00,VALID,917.534,VALID,0,VALID,99.9873,VALID,0,VALID,19.5561,VALID,231,VALID,1.0606,
2000-09-25, 01:04:00,VALID,917.518,VALID,0,VALID,99.9921,VALID,0.0169808,VALID,19.5625,VALID,227,VALID,1.14063,
2000-09-25, 01:05:00,VALID,917.511,VALID,0,VALID,99.9896,VALID,0,VALID,19.5563,VALID,232,VALID,0.830859,
2000-09-25, 01:06:00,VALID,917.487,VALID,0,VALID,99.9908,VALID,-0.0339617,VALID,19.5432,VALID,243,VALID,0.855769,
2000-09-25, 01:07:00,VALID,917.483,VALID,0,VALID,99.9919,VALID,0,VALID,19.5273,VALID,230,VALID,0.765214,
2000-09-25, 01:08:00,VALID,917.476,VALID,0,VALID,99.9901,VALID,-0.0339617,VALID,19.5273,VALID,222,VALID,0.511102,
2000-09-25, 01:09:00,VALID,917.475,VALID,0,VALID,99.9896,VALID,-0.0169808,VALID,19.5181,VALID,197,VALID,0.113867,
2000-09-25, 01:10:00,VALID,917.464,VALID,0,VALID,99.9967,VALID,0,VALID,19.5111,VALID,233,VALID,0.155016,
2000-09-25, 01:11:00,VALID,917.451,VALID,0,VALID,99.9825,VALID,-0.0169808,VALID,19.492,VALID,235,VALID,0,
2000-09-25, 01:12:00,VALID,917.454,VALID,0,VALID,99.9931,VALID,-0.0169808,VALID,19.489,VALID,235,VALID,0,
2000-09-25, 01:13:00,VALID,917.446,VALID,0,VALID,99.986,VALID,-0.0339617,VALID,19.485,VALID,186,VALID,0.0384115,
2000-09-25, 01:14:00,VALID,917.433,VALID,0,VALID,99.9957,VALID,0,VALID,19.4952,VALID,155,VALID,0,
2000-09-25, 01:15:00,VALID,917.424,VALID,0,VALID,99.998,VALID,-0.0169808,VALID,19.4917,VALID,154,VALID,0,
2000-09-25, 01:16:00,VALID,917.411,VALID,0,VALID,99.9967,VALID,-0.0169808,VALID,19.4917,VALID,154,VALID,0,
2000-09-25, 01:17:00,VALID,917.416,VALID,0,VALID,99.999,VALID,-0.0169808,VALID,19.482,VALID,154,VALID,0,
2000-09-25, 01:18:00,VALID,917.421,VALID,0,VALID,99.999,VALID,0,VALID,19.4689,VALID,154,VALID,0,
2000-09-25, 01:19:00,VALID,917.414,VALID,0,VALID,100,VALID,-0.0339617,VALID,19.4788,VALID,132,VALID,0,
2000-09-25, 01:20:00,VALID,917.396,VALID,0,VALID,99.9967,VALID,-0.0169808,VALID,19.4788,VALID,92,VALID,0.43565,
2000-09-25, 01:21:00,VALID,917.386,VALID,0,VALID,99.9957,VALID,-0.0339617,VALID,19.4502,VALID,91,VALID,0.660156,
2000-09-25, 01:22:00,VALID,917.367,VALID,0,VALID,99.998,VALID,0,VALID,19.4244,VALID,86,VALID,0.553168,
2000-09-25, 01:23:00,VALID,917.366,VALID,0,VALID,99.998,VALID,-0.0169808,VALID,19.3946,VALID,91,VALID,0.375422,
2000-09-25, 01:24:00,VALID,917.367,VALID,0,VALID,100,VALID,-0.0339617,VALID,19.3988,VALID,99,VALID,0.408705,
2000-09-25, 01:25:00,VALID,917.381,VALID,0,VALID,100,VALID,-0.0339617,VALID,19.4107,VALID,99,VALID,0.282484,
2000-09-25, 01:26:00,VALID,917.388,VALID,0,VALID,100,VALID,0,VALID,19.4276,VALID,99,VALID,0.0538429,
2000-09-25, 01:27:00,VALID,917.385,VALID,0,VALID,100,VALID,-0.0339617,VALID,19.4239,VALID,99,VALID,0.000411184,
2000-09-25, 01:28:00,VALID,917.388,VALID,0,VALID,100,VALID,0,VALID,19.4338,VALID,99,VALID,0.000633446,
2000-09-25, 01:29:00,VALID,917.384,VALID,0,VALID,100,VALID,-0.0169808,VALID,19.4306,VALID,99,VALID,0,
2000-09-25, 01:30:00,VALID,917.366,VALID,0,VALID,100,VALID,0,VALID,19.4241,VALID,99,VALID,0,
2000-09-25, 01:31:00,VALID,917.339,VALID,0,VALID,100,VALID,-0.0169808,VALID,19.4239,VALID,99,VALID,0,
2000-09-25, 01:32:00,VALID,917.336,VALID,0,VALID,100,VALID,0,VALID,19.4435,VALID,99,VALID,0,
2000-09-25, 01:33:00,VALID,917.313,VALID,0,VALID,100,VALID,-0.0169808,VALID,19.4435,VALID,99,VALID,0,
2000-09-25, 01:34:00,VALID,917.309,VALID,0,VALID,100,VALID,-0.0169808,VALID,19.45,VALID,95,VALID,0,
2000-09-25, 01:35:00,VALID,917.292,VALID,0,VALID,100,VALID,-0.0169808,VALID,19.4363,VALID,344,VALID,0.216992,
2000-09-25, 01:36:00,VALID,917.299,VALID,0,VALID,100,VALID,-0.0509425,VALID,19.4433,VALID,301,VALID,0.0102163,
2000-09-25, 01:37:00,VALID,917.291,VALID,0,VALID,100,VALID,-0.0509425,VALID,19.4537,VALID,301,VALID,0,
2000-09-25, 01:38:00,VALID,917.28,VALID,0,VALID,100,VALID,-0.0169808,VALID,19.4559,VALID,301,VALID,0,
2000-09-25, 01:39:00,VALID,917.268,VALID,0,VALID,100,VALID,-0.0849042,VALID,19.4763,VALID,301,VALID,0,
2000-09-25, 01:40:00,VALID,917.258,VALID,0,VALID,100,VALID,-0.0169808,VALID,19.5051,VALID,301,VALID,0,
2000-09-25, 01:41:00,VALID,917.257,VALID,0,VALID,100,VALID,0,VALID,19.5181,VALID,301,VALID,0,
2000-09-25, 01:42:00,VALID,917.248,VALID,0,VALID,100,VALID,-0.0509425,VALID,19.5086,VALID,301,VALID,0,
2000-09-25, 01:43:00,VALID,917.234,VALID,0,VALID,100,VALID,-0.0509425,VALID,19.5084,VALID,301,VALID,0,
2000-09-25, 01:44:00,VALID,917.213,VALID,0,VALID,100,VALID,-0.0169808,VALID,19.485,VALID,300,VALID,0,
2000-09-25, 01:45:00,VALID,917.207,VALID,0,VALID,100,VALID,-0.0169808,VALID,19.4758,VALID,301,VALID,0,
2000-09-25, 01:46:00,VALID,917.193,VALID,0,VALID,100,VALID,-0.0169808,VALID,19.4758,VALID,298,VALID,0,
2000-09-25, 01:47:00,VALID,917.199,VALID,0,VALID,100,VALID,-0.0339617,VALID,19.4629,VALID,274,VALID,0.254317,
2000-09-25, 01:48:00,VALID,917.187,VALID,0,VALID,100,VALID,-0.0509425,VALID,19.4564,VALID,261,VALID,0.495683,
2000-09-25, 01:49:00,VALID,917.174,VALID,0,VALID,100,VALID,-0.0339617,VALID,19.453,VALID,264,VALID,0.235518,
2000-09-25, 01:50:00,VALID,917.154,VALID,0,VALID,100,VALID,-0.0509425,VALID,19.4532,VALID,247,VALID,0.215872,
2000-09-25, 01:51:00,VALID,917.146,VALID,0,VALID,100,VALID,-0.0339617,VALID,19.4534,VALID,223,VALID,0.0822368,
2000-09-25, 01:52:00,VALID,917.126,VALID,0,VALID,100,VALID,-0.0339617,VALID,19.443,VALID,223,VALID,0.0748698,
2000-09-25, 01:53:00,VALID,917.089,VALID,0,VALID,100,VALID,0,VALID,19.4435,VALID,223,VALID,0.0177365,
2000-09-25, 01:54:00,VALID,917.067,VALID,0,VALID,100,VALID,-0.0169808,VALID,19.4274,VALID,223,VALID,0.0133929,
2000-09-25, 01:55:00,VALID,917.034,VALID,0,VALID,100,VALID,-0.0339617,VALID,19.4174,VALID,221,VALID,0.0941612,
2000-09-25, 01:56:00,VALID,917.02,VALID,0,VALID,100,VALID,0,VALID,19.4043,VALID,216,VALID,0,
2000-09-25, 01:57:00,VALID,916.999,VALID,0,VALID,100,VALID,0,VALID,19.3881,VALID,213,VALID,0,
2000-09-25, 01:58:00,VALID,916.988,VALID,0,VALID,100,VALID,0,VALID,19.3883,VALID,186,VALID,0.248733,
2000-09-25, 01:59:00,VALID,916.981,VALID,0,VALID,100,VALID,-0.0339617,VALID,19.3787,VALID,184,VALID,0,
2000-09-25, 02:00:00,VALID,916.96,VALID,0,VALID,100,VALID,-0.0169808,VALID,19.3851,VALID,184,VALID,0,
2000-09-25, 02:01:00,VALID,916.933,VALID,0,VALID,100,VALID,-0.0169808,VALID,19.3752,VALID,184,VALID,0,
2000-09-25, 02:02:00,VALID,916.943,VALID,0,VALID,100,VALID,0,VALID,19.3724,VALID,199,VALID,0,
2000-09-25, 02:03:00,VALID,916.949,VALID,0,VALID,100,VALID,-0.0509425,VALID,19.3657,VALID,211,VALID,0.0711571,
2000-09-25, 02:04:00,VALID,916.948,VALID,0,VALID,100,VALID,-0.0169808,VALID,19.3692,VALID,228,VALID,0.369256,
2000-09-25, 02:05:00,VALID,916.974,VALID,0,VALID,100,VALID,-0.0169808,VALID,19.3789,VALID,232,VALID,0.0659951,
2000-09-25, 02:06:00,VALID,916.974,VALID,0,VALID,100,VALID,-0.0339617,VALID,19.3789,VALID,231,VALID,0,
2000-09-25, 02:07:00,VALID,916.972,VALID,0,VALID,100,VALID,-0.0339617,VALID,19.3821,VALID,231,VALID,0,
2000-09-25, 02:08:00,VALID,916.969,VALID,0,VALID,100,VALID,-0.0169808,VALID,19.3727,VALID,231,VALID,0,
2000-09-25, 02:09:00,VALID,916.969,VALID,0,VALID,100,VALID,-0.0339617,VALID,19.3632,VALID,155,VALID,0,
2000-09-25, 02:10:00,VALID,916.962,VALID,0,VALID,100,VALID,-0.0169808,VALID,19.3531,VALID,114,VALID,0,
2000-09-25, 02:11:00,VALID,916.971,VALID,0,VALID,100,VALID,-0.0339617,VALID,19.3076,VALID,108,VALID,0,
2000-09-25, 02:12:00,VALID,916.968,VALID,0,VALID,100,VALID,-0.0679233,VALID,19.2721,VALID,108,VALID,0,
2000-09-25, 02:13:00,VALID,916.951,VALID,0,VALID,100,VALID,-0.0509425,VALID,19.2499,VALID,108,VALID,0,
2000-09-25, 02:14:00,VALID,916.929,VALID,0,VALID,100,VALID,-0.0509425,VALID,19.1982,VALID,107,VALID,0,
2000-09-25, 02:15:00,VALID,916.922,VALID,0,VALID,100,VALID,-0.0169808,VALID,19.1525,VALID,107,VALID,0,
2000-09-25, 02:16:00,VALID,916.908,VALID,0,VALID,100,VALID,0,VALID,19.1168,VALID,107,VALID,0,
2000-09-25, 02:17:00,VALID,916.896,VALID,0,VALID,100,VALID,0.0509425,VALID,19.0837,VALID,107,VALID,0,
2000-09-25, 02:18:00,VALID,916.894,VALID,0,VALID,100,VALID,0,VALID,19.0745,VALID,108,VALID,0,
2000-09-25, 02:19:00,VALID,916.883,VALID,0,VALID,100,VALID,0.0339617,VALID,19.0524,VALID,132,VALID,0,
2000-09-25, 02:20:00,VALID,916.878,VALID,0,VALID,100,VALID,0.0169808,VALID,19.0519,VALID,147,VALID,0,
2000-09-25, 02:21:00,VALID,916.871,VALID,0,VALID,100,VALID,0.0169808,VALID,19.0649,VALID,155,VALID,0,
2000-09-25, 02:22:00,VALID,916.859,VALID,0,VALID,100,VALID,0.0169808,VALID,19.045,VALID,159,VALID,0,
2000-09-25, 02:23:00,VALID,916.832,VALID,0,VALID,100,VALID,0,VALID,19.0355,VALID,159,VALID,0,
2000-09-25, 02:24:00,VALID,916.816,VALID,0,VALID,100,VALID,0,VALID,19.0363,VALID,160,VALID,0,
2000-09-25, 02:25:00,VALID,916.775,VALID,0,VALID,100,VALID,0,VALID,19.0104,VALID,160,VALID,0,
2000-09-25, 02:26:00,VALID,916.739,VALID,0,VALID,100,VALID,0.0339617,VALID,19.0164,VALID,160,VALID,0,
2000-09-25, 02:27:00,VALID,916.706,VALID,0,VALID,100,VALID,0,VALID,18.9968,VALID,160,VALID,0,
2000-09-25, 02:28:00,VALID,916.679,VALID,0,VALID,100,VALID,0.0169808,VALID,19.0037,VALID,162,VALID,0,
2000-09-25, 02:29:00,VALID,916.681,VALID,0,VALID,100,VALID,0.0339617,VALID,19,VALID,174,VALID,0,
2000-09-25, 02:30:00,VALID,916.669,VALID,0,VALID,100,VALID,0.0169808,VALID,19.0137,VALID,198,VALID,0,
2000-09-25, 02:31:00,VALID,916.66,VALID,0,VALID,100,VALID,0.0169808,VALID,19.0134,VALID,197,VALID,0,
2000-09-25, 02:32:00,VALID,916.642,VALID,0,VALID,100,VALID,0.0169808,VALID,19.072,VALID,185,VALID,0,
2000-09-25, 02:33:00,VALID,916.634,VALID,0,VALID,100,VALID,0.0339617,VALID,19.1168,VALID,176,VALID,0,
2000-09-25, 02:34:00,VALID,916.622,VALID,0,VALID,100,VALID,0.0509425,VALID,19.1001,VALID,162,VALID,0,
2000-09-25, 02:35:00,VALID,916.613,VALID,0,VALID,100,VALID,0,VALID,19.0683,VALID,151,VALID,0,
2000-09-25, 02:36:00,VALID,916.587,VALID,0,VALID,100,VALID,0.0169808,VALID,19.036,VALID,155,VALID,0,
2000-09-25, 02:37:00,VALID,916.579,VALID,0,VALID,100,VALID,0.0339617,VALID,19.0224,VALID,182,VALID,0,
2000-09-25, 02:38:00,VALID,916.59,VALID,0,VALID,100,VALID,-0.0169808,VALID,19.0393,VALID,197,VALID,0,
2000-09-25, 02:39:00,VALID,916.585,VALID,0,VALID,100,VALID,0,VALID,19.0847,VALID,186,VALID,0,
2000-09-25, 02:40:00,VALID,916.597,VALID,0,VALID,100,VALID,0.0169808,VALID,19.0875,VALID,164,VALID,0,
2000-09-25, 02:41:00,VALID,916.593,VALID,0,VALID,100,VALID,0.0169808,VALID,19.1009,VALID,139,VALID,0,
2000-09-25, 02:42:00,VALID,916.598,VALID,0,VALID,100,VALID,0.0339617,VALID,19.0037,VALID,111,VALID,0,
2000-09-25, 02:43:00,VALID,916.58,VALID,0,VALID,100,VALID,0.0339617,VALID,18.9101,VALID,104,VALID,0,
2000-09-25, 02:44:00,VALID,916.56,VALID,0,VALID,100,VALID,0,VALID,18.8711,VALID,105,VALID,0.453559,
2000-09-25, 02:45:00,VALID,916.538,VALID,0,VALID,100,VALID,0.0169808,VALID,18.9193,VALID,119,VALID,0.902439,
2000-09-25, 02:46:00,VALID,916.524,VALID,0,VALID,100,VALID,0.0169808,VALID,18.9975,VALID,122,VALID,0.821157,
2000-09-25, 02:47:00,VALID,916.513,VALID,0,VALID,100,VALID,0,VALID,19.0619,VALID,134,VALID,0.622533,
2000-09-25, 02:48:00,VALID,916.509,VALID,0,VALID,100,VALID,0,VALID,19.0554,VALID,177,VALID,0.253084,
2000-09-25, 02:49:00,VALID,916.5,VALID,0,VALID,100,VALID,0.0169808,VALID,19.0037,VALID,181,VALID,0.0121951,
2000-09-25, 02:50:00,VALID,916.498,VALID,0,VALID,100,VALID,0.0339617,VALID,18.9873,VALID,181,VALID,0,
2000-09-25, 02:51:00,VALID,916.482,VALID,0,VALID,100,VALID,0.0339617,VALID,18.994,VALID,161,VALID,0,
2000-09-25, 02:52:00,VALID,916.477,VALID,0,VALID,100,VALID,0.0169808,VALID,18.9717,VALID,143,VALID,0,
2000-09-25, 02:53:00,VALID,916.491,VALID,0,VALID,100,VALID,0,VALID,18.9749,VALID,140,VALID,0,
2000-09-25, 02:54:00,VALID,916.5,VALID,0,VALID,100,VALID,0.0339617,VALID,18.9523,VALID,122,VALID,0,
2000-09-25, 02:55:00,VALID,916.51,VALID,0,VALID,100,VALID,0.0509425,VALID,18.9071,VALID,150,VALID,0,
2000-09-25, 02:56:00,VALID,916.495,VALID,0,VALID,100,VALID,0.0169808,VALID,18.9227,VALID,165,VALID,0,
2000-09-25, 02:57:00,VALID,916.507,VALID,0,VALID,100,VALID,0.0169808,VALID,18.9781,VALID,148,VALID,0,
2000-09-25, 02:58:00,VALID,916.52,VALID,0,VALID,100,VALID,0,VALID,19.0042,VALID,138,VALID,0.943623,
2000-09-25, 02:59:00,VALID,916.54,VALID,0,VALID,100,VALID,0,VALID,19.0229,VALID,139,VALID,0.924023,
2000-09-25, 03:00:00,VALID,916.55,VALID,0,VALID,100,VALID,-0.0679233,VALID,19.0598,VALID,138,VALID,0.788035,
2000-09-25, 03:01:00,VALID,916.534,VALID,0,VALID,100,VALID,-0.101885,VALID,19.0963,VALID,151,VALID,0.612413,
2000-09-25, 03:02:00,VALID,916.528,VALID,0,VALID,100,VALID,-0.0849042,VALID,19.1323,VALID,133,VALID,0.78125,
2000-09-25, 03:03:00,VALID,916.527,VALID,0,VALID,100,VALID,-0.0849042,VALID,19.1478,VALID,127,VALID,0.401182,
2000-09-25, 03:04:00,VALID,916.541,VALID,0,VALID,100,VALID,-0.0849042,VALID,19.1378,VALID,141,VALID,0.0420496,
2000-09-25, 03:05:00,VALID,916.544,VALID,0,VALID,100,VALID,-0.101885,VALID,19.1252,VALID,143,VALID,0,
2000-09-25, 03:06:00,VALID,916.557,VALID,0,VALID,100,VALID,-0.101885,VALID,19.1249,VALID,160,VALID,0,
2000-09-25, 03:07:00,VALID,916.554,VALID,0,VALID,100,VALID,-0.0849042,VALID,19.1252,VALID,159,VALID,0,
2000-09-25, 03:08:00,VALID,916.551,VALID,0,VALID,100,VALID,-0.101885,VALID,19.1314,VALID,159,VALID,0,
2000-09-25, 03:09:00,VALID,916.55,VALID,0,VALID,100,VALID,-0.101885,VALID,19.1346,VALID,159,VALID,0,
2000-09-25, 03:10:00,VALID,916.55,VALID,0,VALID,100,VALID,-0.101885,VALID,19.1348,VALID,157,VALID,0,
2000-09-25, 03:11:00,VALID,916.531,VALID,0,VALID,100,VALID,-0.101885,VALID,19.1478,VALID,147,VALID,0,
2000-09-25, 03:12:00,VALID,916.512,VALID,0,VALID,100,VALID,-0.0849042,VALID,19.1535,VALID,145,VALID,0,
2000-09-25, 03:13:00,VALID,916.495,VALID,0,VALID,100,VALID,-0.0849042,VALID,19.1634,VALID,184,VALID,0,
2000-09-25, 03:14:00,VALID,916.486,VALID,0,VALID,100,VALID,-0.0849042,VALID,19.1828,VALID,218,VALID,0,
2000-09-25, 03:15:00,VALID,916.485,VALID,0,VALID,100,VALID,0,VALID,19.1781,VALID,204,VALID,0,
2000-09-25, 03:16:00,VALID,916.518,VALID,0,VALID,100,VALID,0.0849042,VALID,19.1712,VALID,128,VALID,0.67462,
2000-09-25, 03:17:00,VALID,916.551,VALID,0,VALID,100,VALID,0.0849042,VALID,19.123,VALID,133,VALID,0.905633,
2000-09-25, 03:18:00,VALID,916.593,VALID,0,VALID,100,VALID,0.0679233,VALID,19.1138,VALID,148,VALID,0.601357,
2000-09-25, 03:19:00,VALID,916.609,VALID,0,VALID,100,VALID,0.0679233,VALID,19.1059,VALID,138,VALID,0.318788,
2000-09-25, 03:20:00,VALID,916.619,VALID,0,VALID,100,VALID,0.0679233,VALID,19.1163,VALID,138,VALID,0.0106908,
2000-09-25, 03:21:00,VALID,916.63,VALID,0,VALID,100,VALID,0.0849042,VALID,19.1521,VALID,127,VALID,0.194079,
2000-09-25, 03:22:00,VALID,916.646,VALID,0,VALID,100,VALID,0.0679233,VALID,19.165,VALID,108,VALID,1.27344,
2000-09-25, 03:23:00,VALID,916.664,VALID,0,VALID,100,VALID,0.0509425,VALID,19.126,VALID,106,VALID,0.826436,
2000-09-25, 03:24:00,VALID,916.657,VALID,0,VALID,100,VALID,0.0509425,VALID,19.1389,VALID,89,VALID,0.402679,
2000-09-25, 03:25:00,VALID,916.638,VALID,0,VALID,100,VALID,0.0679233,VALID,19.1523,VALID,63,VALID,0.244655,
2000-09-25, 03:26:00,VALID,916.654,VALID,0,VALID,100,VALID,0.0509425,VALID,19.1655,VALID,85,VALID,0.137669,
2000-09-25, 03:27:00,VALID,916.672,VALID,0,VALID,100,VALID,0,VALID,19.1876,VALID,119,VALID,0.00246711,
2000-09-25, 03:28:00,VALID,916.688,VALID,0,VALID,100,VALID,0.0339617,VALID,19.1848,VALID,125,VALID,0,
2000-09-25, 03:29:00,VALID,916.688,VALID,0,VALID,100,VALID,0.0339617,VALID,19.1978,VALID,125,VALID,0,
2000-09-25, 03:30:00,VALID,916.661,VALID,0,VALID,100,VALID,0.0169808,VALID,19.1941,VALID,125,VALID,0,
2000-09-25, 03:31:00,VALID,916.648,VALID,0,VALID,100,VALID,0.0509425,VALID,19.1908,VALID,125,VALID,0,
2000-09-25, 03:32:00,VALID,916.653,VALID,0,VALID,100,VALID,0.0509425,VALID,19.1973,VALID,145,VALID,0,
2000-09-25, 03:33:00,VALID,916.653,VALID,0,VALID,100,VALID,0.0509425,VALID,19.1781,VALID,170,VALID,0,
2000-09-25, 03:34:00,VALID,916.637,VALID,0,VALID,100,VALID,0.0169808,VALID,19.1622,VALID,171,VALID,0,
2000-09-25, 03:35:00,VALID,916.621,VALID,0,VALID,100,VALID,0.0509425,VALID,19.165,VALID,119,VALID,0,
2000-09-25, 03:36:00,VALID,916.583,VALID,0,VALID,100,VALID,0.0849042,VALID,19.1717,VALID,101,VALID,0,
2000-09-25, 03:37:00,VALID,916.554,VALID,0,VALID,100,VALID,0.0679233,VALID,19.1749,VALID,317,VALID,0,
2000-09-25, 03:38:00,VALID,916.574,VALID,0,VALID,100,VALID,0.0509425,VALID,19.1747,VALID,253,VALID,0.152549,
2000-09-25, 03:39:00,VALID,916.601,VALID,0,VALID,100,VALID,0.0509425,VALID,19.1874,VALID,228,VALID,0.724805,
2000-09-25, 03:40:00,VALID,916.617,VALID,0,VALID,100,VALID,0.0679233,VALID,19.2037,VALID,227,VALID,0.336554,
2000-09-25, 03:41:00,VALID,916.592,VALID,0,VALID,100,VALID,0.0339617,VALID,19.2134,VALID,257,VALID,0.078125,
2000-09-25, 03:42:00,VALID,916.561,VALID,0,VALID,100,VALID,0.101885,VALID,19.2127,VALID,303,VALID,0.0487753,